Tekamah, NE

11:11 AM CDT on July 21, 2017 (GMT -0500)
Tekamah

Weather History for KTQE - December, 2013

Change the Weather History Date:

Saturday, December 7, 2013

  Actual Average Record
Temperature  
Mean Temperature 3 °F -  
Max Temperature 12 °F 34 °F 57 °F (1963)
Min Temperature -6 °F 17 °F -12 °F (1976)
Degree Days  
Heating Degree Days 62    
Moisture  
Dew Point -5 °F    
Average Humidity 64    
Maximum Humidity 77    
Minimum Humidity 46    
Precipitation  
Precipitation 0.00 in - - ()
Sea Level Pressure  
Sea Level Pressure 30.68 in    
Wind  
Wind Speed 6 mph (NNE)    
Max Wind Speed 10 mph    
Max Gust Speed -    
Visibility 8 miles    
Events Snow    
Averages and records for this station are not official NWS values.
T = Trace of Precipitation, MM = Missing Value Source: NWS Daily Summary

Daily Weather History Graph

Daily Weather History Graph

Search for Another Location

Airport or City:

Trip Planner

Search our weather history database for the weather conditions in past years. The results will help you decide how hot, cold, wet, or windy it might be!

Date:

Astronomy

Dec. 07, 2013 Rise Set
Actual Time 7:38 AM CST 4:53 PM CST
Civil Twilight 7:07 AM CST 5:25 PM CST
Nautical Twilight 6:32 AM CST 6:00 PM CST
Astronomical Twilight 5:58 AM CST 6:33 PM CST
Moon 11:21 AM CST (12/7) 10:40 PM CST (12/7)
Length of Visible Light 10h 17m
Length of Day
9h 15m
Waxing Crescent, 29% of the Moon is Illuminated
Dec 7
Waxing Crescent
Dec 9
First Quarter
Dec 17
Full
Dec 25
Last Quarter
Jan 1
New

Hourly Weather History & Observations

Time (CST) Temp. Windchill Dew Point Humidity Pressure Visibility Wind Dir Wind Speed Gust Speed Precip Events Conditions
12:54 AM -4.0 °F -19.0 °F -11.0 °F 72% 30.79 in 10.0 mi NW 8.1 mph - N/A   Clear
1:54 AM -4.0 °F -20.2 °F -11.0 °F 72% 30.79 in 10.0 mi NW 9.2 mph - N/A   Clear
2:54 AM -5.1 °F -15.8 °F -11.9 °F 72% 30.80 in 10.0 mi NNW 4.6 mph - N/A   Clear
3:54 AM -5.1 °F -17.6 °F -11.0 °F 76% 30.80 in 10.0 mi North 5.8 mph - N/A   Clear
4:54 AM -5.1 °F -17.6 °F -11.0 °F 76% 30.79 in 10.0 mi North 5.8 mph - N/A   Clear
5:54 AM -6.0 °F - -13.0 °F 72% 30.79 in 10.0 mi Calm Calm - N/A   Clear
6:54 AM -6.0 °F - -11.9 °F 75% 30.81 in 10.0 mi Calm Calm - N/A   Clear
7:54 AM -4.0 °F -12.4 °F -11.0 °F 72% 30.82 in 10.0 mi WSW 3.5 mph - N/A   Clear
8:54 AM -0.0 °F - -8.0 °F 69% 30.84 in 10.0 mi Calm Calm - N/A   Clear
9:54 AM 1.9 °F -7.6 °F -7.1 °F 66% 30.84 in 10.0 mi NNW 4.6 mph - N/A   Clear
10:54 AM 3.0 °F - -8.0 °F 60% 30.83 in 10.0 mi Calm Calm - N/A   Clear
11:54 AM 5.0 °F - -6.0 °F 61% 30.80 in 10.0 mi Calm Calm - N/A   Clear
12:54 PM 8.1 °F - -6.0 °F 53% 30.74 in 10.0 mi Calm Calm - N/A   Clear
1:54 PM 9.0 °F 2.4 °F -7.1 °F 48% 30.71 in 10.0 mi NNW 3.5 mph - N/A   Clear
2:54 PM 10.0 °F 3.6 °F -6.0 °F 48% 30.67 in 10.0 mi ENE 3.5 mph - N/A   Clear
3:54 PM 10.0 °F 1.8 °F -7.1 °F 46% 30.65 in 10.0 mi North 4.6 mph - N/A   Overcast
4:54 PM 10.0 °F -1.9 °F -5.1 °F 51% 30.61 in 10.0 mi NE 8.1 mph - N/A   Overcast
5:54 PM 10.9 °F -0.8 °F -4.0 °F 51% 30.59 in 10.0 mi NNE 8.1 mph - N/A   Overcast
6:54 PM 10.9 °F 0.2 °F -4.0 °F 51% 30.60 in 10.0 mi NE 6.9 mph - N/A   Clear
7:54 PM 10.9 °F 2.9 °F -4.0 °F 51% 30.60 in 10.0 mi NE 4.6 mph - N/A   Overcast
8:54 PM 12.0 °F 1.5 °F -2.9 °F 51% 30.59 in 10.0 mi NE 6.9 mph - N/A   Overcast
9:35 PM 10.9 °F -1.8 °F 1.9 °F 67% 30.50 in 2.5 mi ENE 9.2 mph - 0.00 in Snow Light Snow
9:54 PM 10.9 °F -0.8 °F 3.0 °F 70% 30.56 in 2.5 mi NE 8.1 mph - 0.00 in Snow Light Snow
10:26 PM 12.0 °F 0.5 °F 5.0 °F 73% 30.48 in 3.0 mi East 8.1 mph - 0.00 in Snow Light Snow
10:54 PM 10.9 °F -2.6 °F 5.0 °F 77% 30.53 in 3.0 mi East 10.4 mph - 0.00 in Snow Light Snow
11:43 PM 12.0 °F -1.3 °F 5.0 °F 73% 30.43 in 2.5 mi East 10.4 mph - 0.00 in Snow Light Snow
11:54 PM 12.0 °F -0.4 °F 5.0 °F 73% 30.49 in 2.5 mi East 9.2 mph - 0.00 in Snow Light Snow